Location: Balagbag Mahabang Kahoy
(14.1562°N, 120.9200°E)
Time: 05:09:58
(UTC+00:00)

Cosmos 2278 Rocket - Pass Details

Date: 16 January 2026
Orbit: 839 x 846 km, 71.0° (Epoch: 15 February)

Event Time Altitude Azimuth Distance (km) Brightness Sun altitude
Rises 21:31:12 0° 232° (SW) 3,379 5.0 -13.0°
Reaches altitude 10° 21:34:32 10° 252° (WSW) 2,446 4.1 -12.2°
Maximum altitude 21:38:01 17° 291° (WNW) 2,011 3.5 -11.4°
Drops below altitude 10° 21:41:31 10° 330° (NNW) 2,448 4.2 -10.6°
Sets 21:44:53 0° 350° (N) 3,384 5.0 -9.9°
